{"data":{"norad_id":57709,"epoch":"2026-09-20T22:13:20.875584Z","epoch_age_seconds":94793,"freshness":"FRESH","line1":"1 57709U 23129M   26263.92593606  .00000011  00000+0  99282-5 0  9990","line2":"2 57709  43.0041  95.1267 0001601 270.3351  89.7317 15.27575865170544","mean_motion":15.27575865,"eccentricity":0.0001601,"inclination_deg":43.0041,"raan_deg":95.1267,"arg_perigee_deg":270.3351,"mean_anomaly_deg":89.7317,"bstar":9.9282e-6,"rev_number":17054,"period_min":94.267003884616,"perigee_km":481.96299986886,"apogee_km":484.15995562143,"semimajor_km":6861.1984777451,"source":"CELESTRAK","updated_at":"2026-09-21T09:00:33.675628Z"}}